Regional Weather Roundup
Issued by NWS

Home | Current Version | Previous Version | Graphics & Text | Print | Product List | Glossary On
Versions: 1 2 3 4 5 6 7 8 9 10 11 12 13 14 15 16 17 18 19 20 21 22 23 24 25 26 27 28 29 30 31 32 33 34 35 36 37 38 39 40 41 42 43 44 45 46 47 48 49 50
157
ASUS44 KJAN 260503
RWRMS

MISSISSIPPI HOURLY WEATHER ROUNDUP
NATIONAL WEATHER SERVICE JACKSON MS
1200 AM CDT SUN OCT 26 2014

NOTE: "FAIR: INDICATES FEW OR NO CLOUDS BELOW 12,000 FEET WITH NO
SIGNIFICANT WEATHER AND/OR OBSTRUCTIONS TO VISIBILITY.

MSZ001>002-007>008-010>013-018>021-025>028-034>036-260600-
NORTHWEST MISSISSIPPI

CITY           SKY/WX    TMP DP  RH WIND       PRES   REMARKS
CLARKSDALE     FAIR      64  64 100 CALM      30.05S
CLEVELAND      FAIR      64  63  96 S3        30.04F
GREENWOOD      CLEAR     60  59  96 CALM      30.05F FOG
GREENVILLE     CLEAR     64  62  93 S3        30.04F
GRENADA          N/A    N/A N/A N/A MISG        N/A
OLIVE BRANCH   CLEAR     63  63 100 S5        30.03F
OXFORD         FAIR      57  57 100 CALM      30.06F FOG
TUNICA         CLEAR     63  61  94 SW3       30.04F
$$

MSZ003>006-009-014>017-022>024-029>033-037>039-260600-
NORTHEAST MISSISSIPPI

CITY           SKY/WX    TMP DP  RH WIND       PRES   REMARKS
COLUMBUS AFB   CLEAR     58  58 100 SE2       30.05F FOG
CORINTH        FAIR      59  57  94 CALM      30.03F FOG
GOLDN TRIANGLE CLEAR     61  55  82 SW3       30.05F
STARKVILLE       N/A     57  55  94 CALM      30.06F FOG
TUPELO         CLEAR     62  59  90 CALM      30.04F
$$

MSZ040-058-260600-
CENTRAL MISSISSIPPI

CITY           SKY/WX    TMP DP  RH WIND       PRES   REMARKS
JACKSON INTL   CLEAR     59  57  93 CALM      30.08F
JACKSON HAWKNS CLEAR     62  59  90 CALM      30.08F
MERIDIAN KEY   CLEAR     58  56  93 CALM      30.08F
MERIDIAN NAS   CLEAR     60  58  92 CALM      30.08S FOG
RAYMOND        FAIR      57  52  82 MISG      30.08F HAZE
VICKSBURG      CLEAR     59  56  89 CALM      30.07F
$$

MSZ059>079-260600-
SOUTH MISSISSIPPI

CITY           SKY/WX    TMP DP  RH WIND       PRES   REMARKS
BROOKHAVEN     FAIR      57  55  94 CALM      30.10F FOG
COLUMBIA         N/A     55  55 100 MISG        N/A
HATTIESBURG    CLEAR     59  57  93 CALM      30.09S
MCCOMB         CLEAR     58  54  86 CALM      30.09F
NATCHEZ        CLEAR     57  54  88 S3        30.09F
PINE BELT      CLEAR     57  54  88 CALM      30.09S
$$

MSZ080>082-260600-
COASTAL MISSISSIPPI

CITY           SKY/WX    TMP DP  RH WIND       PRES   REMARKS
BILOXI         CLEAR     65  61  84 NW2       30.06F
PASCAGOULA     CLEAR     55  54  96 CALM      30.07F FOG
GULFPORT       CLEAR     60  58  92 CALM      30.06F
$$



USA.gov is the U.S. government's official web portal to all federal, state and local government web resources and services.